Tracking 35051 objects as of 17-Aug-2026
HD Live streaming from Space Station
objects crossing your sky now

COSMOS 57 DEB


COSMOS 57 DEB is no longer on orbit


NORAD ID: 1113
Int'l Code: 1965-012R
Launch date: February 22, 1965
Source: Commonwealth of Independent States (former USSR) (CIS)
Launch site: TYURATAM MISSILE AND SPACE COMPLEX (TTMTR)
Decay date: 1965-02-25

Note: This is SATELLITE DEBRIS
Your satellite tracking list
Your tracking list is empty




NASA's NSSDC Master Catalog

Two Line Element Set (TLE):
1 01113U 65012  R 65055.10651516  .06442099 +13245-0 +00000-0 0  9995
2 01113 064.6416 294.8810 0050249 138.0044 222.3818 16.29685095000295
Source of the keplerian elements: AFSPC